Weather reports worldwide

Advertisment
Coleshill, United Kingdom (3535): temperature & dewpoint: 23.06.2017 09:00:00 - 29.06.2017 09:00:00 (BST)Coleshill, United Kingdom (3535): temperature -20cm & temperature -100cm: 23.06.2017 09:00:00 - 29.06.2017 09:00:00 (BST)Coleshill, United Kingdom (3535): wind speed: 23.06.2017 09:00:00 - 29.06.2017 09:00:00 (BST)Coleshill, United Kingdom (3535): wind direction: 23.06.2017 09:00:00 - 29.06.2017 09:00:00 (BST)Coleshill, United Kingdom (3535): reduced air pressure: 23.06.2017 09:00:00 - 29.06.2017 09:00:00 (BST)Coleshill, United Kingdom (3535): visibility: 23.06.2017 09:00:00 - 29.06.2017 09:00:00 (BST)Coleshill, United Kingdom (3535): precipitation: 23.06.2017 09:00:00 - 29.06.2017 09:00:00 (BST)
Date & Time tt [°C] td [°C] tt -20cm [°C] tt -100cm [°C] ff [km/h] ff [kn] dd ppp [hPa] vv [km] rr [mm]
29.06.2017 09:00:00 11,6 10,7 - - 11 6 WNW 994,1 16 0,0
29.06.2017 08:00:00 11,3 10,0 - - 11 6 WNW 994,1 15 0,0
29.06.2017 07:00:00 10,8 9,5 - - 13 7 WNW 994,2 45 0,0
29.06.2017 06:00:00 10,5 9,3 - - 13 7 WNW 994,3 35 0,0
29.06.2017 05:00:00 10,3 9,0 - - 16 9 WNW 994,4 30 0,0
29.06.2017 04:00:00 10,3 8,9 - - 15 8 WNW 994,7 21 0,0
29.06.2017 03:00:00 10,4 8,9 - - 13 7 WNW 995,2 30 0,0
29.06.2017 02:00:00 10,7 8,8 - - 13 7 WNW 995,9 40 0,0
29.06.2017 01:00:00 10,7 8,8 - - 11 6 WNW 996,2 45 0,0
29.06.2017 00:00:00 11,2 9,1 - - 15 8 NW 996,7 50 0,0
28.06.2017 23:00:00 11,2 9,0 - - 16 9 NNW 997,2 50 0,0
28.06.2017 22:00:00 11,4 9,4 - - 13 7 NNW 997,7 50 0,0
28.06.2017 21:00:00 11,6 9,7 - - 13 7 N 998,0 50 0,0
28.06.2017 20:00:00 11,7 10,8 - - 15 8 N 997,9 50 0,0
28.06.2017 19:00:00 12,3 10,3 - - 16 9 N 998,3 50 0,0
28.06.2017 18:00:00 12,9 10,6 - - 21 11 N 998,2 50 0,0
28.06.2017 17:00:00 12,9 10,8 - - 18 10 N 998,5 50 0,0
28.06.2017 16:00:00 13,4 11,4 - - 18 10 N 998,6 50 0,0
28.06.2017 15:00:00 13,4 11,6 - - 15 8 NNE 998,9 50 0,0
28.06.2017 14:00:00 13,2 12,0 - - 18 10 NNE 999,1 30 0,0
28.06.2017 13:00:00 13,0 11,6 - - 16 9 NNE 999,4 45 0,0
28.06.2017 12:00:00 12,8 12,0 - - 16 9 N 999,6 11 0,0
28.06.2017 11:00:00 12,9 12,3 - - 13 7 NNE 999,6 45 0,2
28.06.2017 10:00:00 12,9 12,4 17,7 16,2 15 8 NNE 999,6 16 0,2
28.06.2017 09:00:00 13,1 12,7 - - 13 7 NNE 999,5 7 0,2
28.06.2017 08:00:00 13,4 13,1 - - 9 5 NNE 999,5 18 0,2
28.06.2017 07:00:00 13,5 13,2 - - 11 6 NE 999,6 18 0,0
28.06.2017 06:00:00 13,3 13,1 - - 9 5 NNE 999,9 23 0,2
28.06.2017 05:00:00 13,1 13,0 - - 8 4 N 1000,1 7 0,0
28.06.2017 04:00:00 12,9 12,8 - - 8 4 NNE 1000,4 10 1,2
28.06.2017 03:00:00 12,7 12,5 - - 9 5 NNE 1001,1 4,2 2,6
28.06.2017 02:00:00 13,0 12,6 - - 8 4 NNE 1001,8 3,5 1,8
28.06.2017 01:00:00 13,2 12,5 - - 5 3 NE 1002,6 4,0 0,4
28.06.2017 00:00:00 13,5 12,3 - - 9 5 ENE 1003,0 8 0,0
27.06.2017 23:00:00 13,9 12,4 - - 8 4 E 1003,3 12 0,0
27.06.2017 22:00:00 14,3 12,6 - - 9 5 ENE 1003,6 16 0,0
27.06.2017 21:00:00 15,0 12,7 - - 11 6 E 1003,7 20 0,0
27.06.2017 20:00:00 15,9 13,0 - - 9 5 E 1003,9 25 0,0
27.06.2017 19:00:00 16,7 13,3 - - 8 4 E 1004,0 30 0,0
27.06.2017 18:00:00 17,2 13,4 - - 8 4 E 1004,4 35 0,0
27.06.2017 17:00:00 16,9 13,2 - - 8 4 E 1005,0 35 0,0
27.06.2017 16:00:00 17,1 13,0 - - 11 6 E 1005,4 30 0,0
27.06.2017 15:00:00 18,1 13,0 - - 16 9 E 1005,7 35 0,0
27.06.2017 14:00:00 18,4 13,5 - - 13 7 E 1006,2 40 0,0
27.06.2017 13:00:00 16,7 12,6 - - 15 8 E 1006,9 40 0,0
27.06.2017 12:00:00 15,9 13,1 - - 9 5 ENE 1007,6 40 0,0
27.06.2017 11:00:00 15,4 11,3 - - 9 5 E 1008,0 50 0,0
27.06.2017 10:00:00 14,4 10,1 18,0 16,4 5 3 NE 1008,4 50 0,0
27.06.2017 09:00:00 14,8 10,0 - - 8 4 ESE 1008,6 50 0,0
27.06.2017 08:00:00 14,6 9,5 - - 9 5 ESE 1008,9 50 0,0
27.06.2017 07:00:00 13,8 9,7 - - 9 5 SE 1009,0 50 0,0
27.06.2017 06:00:00 13,1 10,0 - - 5 3 SE 1009,6 50 0,0
27.06.2017 05:00:00 13,0 10,0 - - 8 4 SE 1010,1 50 0,0
27.06.2017 04:00:00 14,0 9,3 - - 13 7 SE 1010,3 50 0,0
27.06.2017 03:00:00 14,4 9,1 - - 13 7 SE 1010,8 50 0,0
27.06.2017 02:00:00 15,1 9,2 - - 9 5 ESE 1011,1 50 0,0
27.06.2017 01:00:00 15,7 10,0 - - 13 7 ESE 1011,2 50 0,0
27.06.2017 00:00:00 15,8 9,7 - - 5 3 ENE 1012,0 50 0,0
26.06.2017 23:00:00 16,3 9,1 - - 4 2 E 1012,1 50 0,0
26.06.2017 22:00:00 16,5 9,1 - - 8 4 E 1012,2 50 0,0
26.06.2017 21:00:00 17,1 9,5 - - 5 3 E 1012,3 50 0,0
26.06.2017 20:00:00 17,7 9,0 - - 5 3 E 1012,6 50 0,0
26.06.2017 19:00:00 18,6 9,0 - - 8 4 E 1012,8 50 0,0
26.06.2017 18:00:00 19,3 9,6 - - 8 4 ENE 1012,8 50 0,0
26.06.2017 17:00:00 19,3 9,5 - - 9 5 ENE 1013,3 50 0,0
26.06.2017 16:00:00 19,3 8,6 - - 8 4 ENE 1013,6 50 0,0
26.06.2017 15:00:00 18,8 8,7 - - 4 2 ENE 1014,1 50 0,0
26.06.2017 14:00:00 18,3 8,3 - - 5 3 ENE 1014,4 50 0,0
26.06.2017 13:00:00 18,1 8,0 - - 4 2 NE 1014,7 50 0,0
26.06.2017 12:00:00 17,4 8,2 - - 4 2 E 1014,8 50 0,0
26.06.2017 11:00:00 16,8 7,2 - - 8 4 NE 1015,0 50 0,0
26.06.2017 10:00:00 16,0 8,0 17,9 16,5 5 3 NNE 1015,0 50 0,0
26.06.2017 09:00:00 14,9 9,7 - - 4 2 NE 1015,1 35 0,0
26.06.2017 08:00:00 13,6 9,6 - - 5 3 N 1015,3 50 0,0
26.06.2017 07:00:00 11,9 9,5 - - 2 1 E 1015,0 45 0,0
26.06.2017 06:00:00 10,6 8,7 - - 4 2 NNW 1014,7 50 0,0
26.06.2017 05:00:00 9,5 8,4 - - 4 2 NNW 1014,7 50 0,0
26.06.2017 04:00:00 9,6 8,2 - - 2 1 S 1014,7 50 0,0
26.06.2017 03:00:00 9,7 7,3 - - 4 2 S 1014,9 50 0,0
26.06.2017 02:00:00 10,1 6,8 - - 2 1 WNW 1014,7 50 0,0
26.06.2017 01:00:00 11,6 6,2 - - 5 3 WNW 1014,7 50 0,0
26.06.2017 00:00:00 12,6 6,5 - - 9 5 NW 1014,4 50 0,0
25.06.2017 23:00:00 13,3 7,6 - - 5 3 WNW 1014,2 50 0,0
25.06.2017 22:00:00 13,6 8,1 - - 8 4 NW 1013,9 50 0,0
25.06.2017 21:00:00 14,0 8,8 - - 11 6 NW 1013,3 50 0,0
25.06.2017 20:00:00 15,4 9,9 - - 15 8 NW 1012,8 50 0,0
25.06.2017 19:00:00 15,0 10,9 - - 11 6 WNW 1012,5 50 0,0
25.06.2017 18:00:00 15,0 11,3 - - 18 10 NW 1011,9 50 0,0
25.06.2017 17:00:00 16,8 12,9 - - 15 8 WNW 1011,1 50 0,0
25.06.2017 16:00:00 17,8 13,5 - - 18 10 NW 1010,5 50 0,0
25.06.2017 15:00:00 19,6 11,7 - - 22 12 W 1010,0 50 0,0
25.06.2017 14:00:00 19,0 13,4 - - 11 6 W 1010,0 50 0,0
25.06.2017 13:00:00 19,2 13,1 - - 9 5 WSW 1010,0 50 0,0
25.06.2017 12:00:00 18,7 13,9 - - 16 9 SSW 1010,5 50 0,0
25.06.2017 11:00:00 16,5 12,1 - - 11 6 SW 1010,7 35 0,0
25.06.2017 10:00:00 16,0 11,5 18,4 16,5 9 5 SW 1010,9 45 0,0
25.06.2017 09:00:00 16,5 10,7 - - 15 8 WSW 1010,9 50 0,0
25.06.2017 08:00:00 15,5 11,1 - - 9 5 WSW 1011,1 50 0,0
25.06.2017 07:00:00 14,5 10,3 - - 11 6 W 1010,9 50 0,0
25.06.2017 06:00:00 14,3 11,1 - - 8 4 WSW 1010,9 40 0,0
25.06.2017 05:00:00 14,2 11,3 - - 8 4 WSW 1010,6 45 0,0
25.06.2017 04:00:00 14,0 11,4 - - 9 5 SW 1010,6 45 0,0
25.06.2017 03:00:00 14,5 11,9 - - 9 5 SW 1010,7 45 0,0
25.06.2017 02:00:00 14,8 12,1 - - 9 5 SW 1010,8 45 0,0
25.06.2017 01:00:00 15,0 12,3 - - 8 4 SW 1011,0 45 0,0
25.06.2017 00:00:00 15,1 12,4 - - - - - 1011,2 50 0,0
24.06.2017 23:00:00 16,2 12,6 - - 9 5 SW 1011,4 50 0,0
24.06.2017 22:00:00 17,4 12,8 - - 11 6 WSW 1011,1 50 0,0
24.06.2017 21:00:00 18,6 13,0 - - 9 5 WSW 1010,6 50 0,0
24.06.2017 20:00:00 19,3 13,1 - - 11 6 WSW 1010,6 50 0,0
24.06.2017 19:00:00 19,6 12,8 - - 13 7 WSW 1010,6 50 0,0
24.06.2017 18:00:00 20,2 12,7 - - 16 9 WSW 1010,5 50 0,0
24.06.2017 17:00:00 22,1 13,6 - - 15 8 WSW 1010,6 50 0,0
24.06.2017 16:00:00 20,9 13,0 - - 16 9 W 1011,1 45 0,0
24.06.2017 15:00:00 21,7 14,0 - - 15 8 W 1011,2 50 0,0
24.06.2017 14:00:00 20,2 13,3 - - 16 9 WSW 1011,6 7 0,0
24.06.2017 13:00:00 20,2 13,9 - - 15 8 W 1012,0 50 0,0
24.06.2017 12:00:00 18,7 13,3 - - 8 4 SW 1012,3 50 0,0
24.06.2017 11:00:00 19,0 13,3 - - 11 6 WSW 1012,3 50 0,0
24.06.2017 10:00:00 18,3 13,0 18,4 16,5 9 5 SW 1012,4 50 0,0
24.06.2017 09:00:00 17,8 12,8 - - 9 5 WSW 1012,8 50 0,0
24.06.2017 08:00:00 17,9 13,0 - - 13 7 WSW 1012,7 50 0,0
24.06.2017 07:00:00 16,9 13,6 - - 9 5 SW 1012,5 50 0,0
24.06.2017 06:00:00 16,3 13,6 - - 9 5 SW 1012,4 50 0,0
24.06.2017 05:00:00 16,4 13,7 - - 13 7 WSW 1012,4 50 0,0
24.06.2017 04:00:00 16,6 13,7 - - 11 6 SW 1012,5 50 0,0
24.06.2017 03:00:00 16,4 13,8 - - 11 6 SSW 1012,7 50 0,0
24.06.2017 02:00:00 16,0 14,0 - - 13 7 SSW 1013,0 50 0,0
24.06.2017 01:00:00 16,2 13,6 - - 11 6 SSW 1013,3 50 0,0
24.06.2017 00:00:00 16,2 13,5 - - 16 9 SSW 1013,6 50 0,0
23.06.2017 23:00:00 16,4 13,4 - - 16 9 SSW 1013,6 50 0,0
23.06.2017 22:00:00 16,7 13,5 - - 16 9 SSW 1013,9 50 0,0
23.06.2017 21:00:00 17,3 13,6 - - 13 7 SSW 1013,8 50 0,0
23.06.2017 20:00:00 17,9 13,5 - - 13 7 SW 1013,9 50 0,0
23.06.2017 19:00:00 18,1 13,5 - - 13 7 SW 1013,9 50 0,0
23.06.2017 18:00:00 18,5 13,7 - - 15 8 WSW 1013,9 50 0,0
23.06.2017 17:00:00 18,3 13,4 - - 13 7 SW 1014,3 50 0,0
23.06.2017 16:00:00 18,2 13,5 - - 11 6 SW 1014,3 50 0,0
23.06.2017 15:00:00 18,3 13,1 - - 15 8 SW 1014,4 50 0,0
23.06.2017 14:00:00 18,3 13,1 - - 15 8 SW 1014,2 50 0,0
23.06.2017 13:00:00 17,9 12,8 - - 15 8 WSW 1014,3 50 0,0
23.06.2017 12:00:00 17,9 12,6 - - 13 7 SW 1014,0 50 0,0
23.06.2017 11:00:00 17,2 12,2 - - 16 9 SW 1014,0 50 0,0
23.06.2017 10:00:00 16,4 11,9 18,9 16,5 11 6 SW 1014,2 50 0,0
23.06.2017 09:00:00 15,8 11,3 - - 15 8 WSW 1014,1 50 0,0

tt = temperature
td = dewpoint
tt -20cm = temperature -20cm
tt -100cm = temperature -100cm
ff = wind speed
dd = wind direction
ppp = reduced air pressure
vv = visibility
rr = precipitation

Next stations